Regional Weather Roundup
Issued by NWS

Home | Current Version | Previous Version | Graphics & Text | Print | Product List | Glossary Off
Versions: 1 2 3 4 5 6 7 8 9 10 11 12 13 14 15 16 17 18 19 20 21 22 23 24 25 26 27 28 29 30 31 32 33 34 35 36 37 38 39 40 41 42 43 44 45 46 47 48 49 50

000
ASUS45 KCYS 271310
RWRWY

WYOMING REGIONAL WEATHER ROUNDUP
NATIONAL WEATHER SERVICE CHEYENNE WY
700 AM MDT MON MAR 27 2017

NOTE:  "FAIR" INDICATES FEW OR NO CLOUDS BELOW 12,000 FEET
WITH NO SIGNIFICANT WEATHER AND/OR OBSTRUCTIONS TO VISIBILITY.

WYZ001-271400-
YELLOWSTONE NATIONAL PARK

CITY           SKY/WX    TMP DP  RH WIND       PRES   REMARKS
LK YELLOWSTONE   N/A     28  27  96 CALM      29.89S
W YELLOWSTONE  NOT AVBL

$$
WYZ002>013-054>058-071-098>099-271400-
NORTHERN WYOMING

CITY           SKY/WX    TMP DP  RH WIND       PRES   REMARKS
JACKSON        CLOUDY    32  32 100 SW7       29.90S WCI  26
CODY           FAIR      38  25  59 CALM      29.84R
GREYBULL       FAIR      39  32  76 E5        29.82R
WORLAND        FAIR      36  33  89 S8        29.83R WCI  30
SHERIDAN       FAIR      36  31  82 SW3       29.82S
BUFFALO        MOCLDY    38  28  67 NW7       29.82S WCI  33
GILLETTE       FAIR      34  32  92 CALM      29.84R
HULETT         FAIR      34  32  93 E5        29.87S WCI  30
NEWCASTLE      PTSUNNY   32  32 100 CALM      29.87F

$$
WYZ014>020-022>026-101>103-271400-
CENTRAL WYOMING

CITY           SKY/WX    TMP DP  RH WIND       PRES   REMARKS
BIG PINEY      FAIR      24  22  91 N6        29.93F WCI  17
PINEDALE       PTSUNNY   25  25 100 NW3       29.93S
DUBOIS         FAIR      30  21  69 NW12      29.86R WCI  21
LANDER         FAIR      29  22  75 E5        29.86R WCI  24
RIVERTON       FAIR      31  24  75 SW7       29.86S WCI  24
CASPER         FAIR      34  26  72 SW10      29.85R WCI  26
DOUGLAS        FAIR      31  29  92 SE6       29.86S WCI  25

$$
WYZ021-027>030-104>119-271400-
SOUTHERN WYOMING

CITY           SKY/WX    TMP DP  RH WIND       PRES   REMARKS
EVANSTON       CLOUDY    32  27  81 S6        29.92S WCI  26
KEMMERER         N/A     32  27  80 N3        29.92F
ROCK SPRINGS   CLOUDY    35  26  69 SE8       29.93S WCI  29
DIXON            N/A     33  28  81 CALM      29.97S
RAWLINS        CLOUDY    36  23  59 W10       29.93S WCI  28
SARATOGA       PTSUNNY   30  25  80 CALM      29.95S
LARAMIE        FAIR      27  22  81 S5        29.91F WCI  22
CHEYENNE       MOCLDY    31  28  89 SW6       29.92S WCI  25
TORRINGTON     FOG       27  26  96 SE8       29.89R VSB 1/4 WCI  19
PINE BLUFFS    FAIR      27  25  93 S8        29.94S WCI  18

$$



USA.gov is the U.S. government's official web portal to all federal, state and local government web resources and services.